User: anonymous
Location: Cranbrook Institute of Science
(42.5830°N, 83.2450°W)
Time: 01:22:42
(UTC-04:00)
Language:

CZ-4B R/B - Orbit

View from above orbital plane
View from above orbital plane
View from above satellite
View from above satellite

Ground track
Ground track

The orbit data is extracted from the following two-line orbital elements,

1 29093U 06015B   14292.42973432  .00019953  00000-0  69482-3 0  4306
2 29093 097.5141 012.4372 0088023 183.5025 307.9605 15.26008317468513
Epoch (UTC): 19 October 2014 10:18:49
Eccentricity: 0.0088023
inclination: 97.5141°
perigee height: 427 km
apogee height: 548 km
right ascension of ascending node: 12.4372°
argument of perigee: 183.5025°
revolutions per day: 15.26008317
mean anomaly at epoch: 307.9605°
orbit number at epoch: 46851

The dashed part of the orbit path shows where the satellite is in the earth's shadow,  

DLR